カタログに戻る

COSMOS 2079

GLONASS

運用中ナビゲーションMEO
NORAD 20619·PAYLOAD·🇷🇺 Russia

打ち上げ May 19, 1990 から Baikonur Cosmodrome

Loading…

次のパス (今後24時間)

TLE

最新Source: Space-Track

元期: Sep 13, 2026, 01:55 UTC

1 20619U 90045A   26256.07986299 -.00000040  00000-0  00000-0 0  9992
2 20619  64.6523 305.3517 0048646 204.6350 216.7789  2.13103424282639

AllMySatでCOSMOS 2079をリアルタイム追跡

Download on the App Store